Wind_Speed
130 111 95 84 74 70 65 61 58 54 50 48 47 47 48 47 48 49 52 56 61 68 68 72 70 67 67 65 65 73 79 85 86 85 84 85 78 80 86 89 86 87 85 87 87 88 87 82 82 82 81 81 83 81
104 93 82 73 66 62 57 52 48 45 43 42 41 41 40 40 42 44 49 51 57 62 64 66 68 67 70 68 68 77 77 79 84 81 81 80 84 80 79 86 83 79 80 85 86 85 83 82 83 84 85 84 84 82
89 81 71 61 56 51 47 44 41 38 37 36 35 36 36 37 38 40 44 49 55 58 60 65 66 68 71 70 70 78 82 77 79 80 82 85 85 81 79 72 68 70 76 78 77 77 79 81 83 84 84 81 81 77
75 67 59 53 50 46 41 38 35 33 32 30 31 33 33 34 36 38 40 45 50 53 57 61 65 71 73 74 73 77 88 83 76 80 81 79 78 80 79 77 71 72 70 67 72 68 57 63 65 75 74 77 75 62
64 59 53 47 43 39 35 32 30 29 27 26 29 30 31 33 36 39 41 43 47 51 57 62 64 71 75 77 75 77 85 86 77 77 78 72 74 72 75 74 72 73 68 61 66 68 70 73 71 67 59 65 64 66
57 51 44 39 35 32 30 26 23 23 22 23 26 28 30 32 35 39 40 43 46 50 56 62 67 72 78 79 76 77 78 84 79 76 73 68 69 67 66 67 67 64 68 67 66 72 74 78 75 74 73 73 76 79
48 42 37 34 30 26 22 18 18 18 18 21 23 26 28 31 35 37 40 43 46 50 57 65 68 74 80 78 76 76 74 79 77 74 69 65 65 66 64 63 63 63 64 68 75 77 78 78 78 81 87 86 87 83
41 37 33 30 25 20 16 13 14 14 17 19 21 24 27 31 35 38 40 43 46 51 58 63 68 74 78 76 76 73 71 75 77 72 66 65 66 65 62 57 55 55 60 66 68 72 73 76 73 75 82 83 87 84
38 33 29 25 20 15 12 11 11 13 15 18 21 23 26 31 34 37 40 44 48 52 57 60 67 74 76 75 75 71 69 72 77 75 70 69 68 63 56 53 48 47 46 51 60 67 70 73 75 75 77 78 80 73
32 28 23 19 15 12 10 10 12 13 14 17 20 22 26 30 33 37 42 45 49 54 58 62 66 73 75 75 70 69 70 70 74 78 73 65 58 55 51 48 45 46 47 51 56 60 61 63 64 67 72 77 79 80
26 21 17 14 11 8 7 10 13 14 15 17 20 23 27 31 35 38 42 45 49 53 59 61 66 74 76 75 70 68 69 66 72 73 70 65 59 55 54 54 52 50 50 46 44 43 44 46 50 61 69 67 72 70
20 15 13 10 6 2 7 11 13 14 15 18 22 25 29 32 35 39 41 45 49 55 60 62 69 74 75 76 71 70 71 70 67 67 66 65 61 61 60 56 53 49 45 41 40 39 42 45 51 56 60 62 73 79
15 12 9 6 4 4 8 10 12 14 17 20 23 25 28 30 34 36 39 44 49 53 58 60 66 73 75 76 73 68 67 68 69 67 66 65 65 64 62 60 55 48 46 45 44 42 41 42 44 45 45 45 48 52
14 10 7 5 4 7 10 11 13 15 17 20 21 22 25 29 34 39 40 43 48 54 57 59 61 72 72 75 74 68 65 66 63 62 63 65 65 64 60 56 52 51 48 46 47 47 47 50 51 50 51 55 57 59
14 10 8 6 7 10 12 14 15 16 19 21 22 24 26 28 30 35 39 43 48 52 56 58 60 68 73 67 72 74 71 66 62 59 64 64 62 61 59 57 55 53 52 52 54 54 56 57 58 57 58 63 66 70
18 14 12 12 12 12 12 13 15 18 21 22 24 24 25 28 31 35 36 37 45 49 52 55 58 60 69 70 67 68 67 67 66 68 64 60 59 58 57 57 57 56 57 58 59 59 60 62 64 66 68 71 73 74
19 17 15 15 16 14 13 13 15 17 19 21 21 22 24 27 29 33 36 37 41 46 52 53 56 58 60 66 67 61 63 67 68 66 66 68 63 60 61 61 61 62 61 62 64 65 64 66 67 69 72 75 78 82
24 20 20 19 18 18 18 18 19 20 20 20 20 20 23 25 26 28 32 34 36 38 44 48 50 53 56 58 60 64 64 59 58 60 61 65 67 67 68 70 69 67 65 63 64 65 66 68 70 73 76 79 82 85
30 27 25 25 24 22 22 22 20 19 19 22 24 25 26 24 23 23 27 30 32 35 37 40 43 45 48 52 56 57 59 62 63 61 60 60 60 60 62 62 62 63 63 64 66 69 72 75 77 78 76 71 70 65
35 33 32 30 29 28 29 26 24 25 23 22 23 23 21 20 19 20 21 24 27 30 32 34 37 39 43 46 49 52 55 57 59 61 64 67 69 69 69 71 72 72 72 73 72 72 71 67 66 63 57 50 47 44
39 37 35 35 34 33 32 31 29 29 27 25 23 23 22 20 20 21 22 23 26 30 32 32 31 29 30 32 35 39 44 47 49 53 56 56 56 57 57 57 58 58 57 57 58 55 48 43 39 39 37 37 38 40
50 46 43 41 38 35 33 34 33 31 29 27 26 24 23 22 20 18 18 18 19 20 22 24 26 26 27 28 29 30 32 34 38 40 40 42 44 43 42 43 42 40 38 34 32 30 30 31 30 31 32 31 31 32
55 54 51 46 43 41 41 38 37 35 34 33 31 31 30 28 27 24 22 20 19 19 19 20 21 22 23 25 24 22 23 24 26 26 26 27 26 25 24 23 24 24 27 28 26 26 28 27 26 28 31 32 32 30
47 49 51 50 46 45 42 40 37 38 37 36 34 32 31 31 32 34 34 31 31 28 26 23 20 18 18 16 15 14 13 11 12 13 15 17 17 16 18 21 22 21 21 22 23 24 25 26 27 26 26 26 25 26
43 42 42 42 44 42 40 41 40 38 38 36 35 34 34 36 35 30 28 27 26 24 24 21 19 17 15 14 14 12 8 6 6 4 3 5 9 11 13 14 15 17 19 21 22 21 21 23 25 27 27 29 31 33
38 39 40 42 41 38 37 35 35 35 35 34 33 31 31 33 33 31 28 26 25 23 19 16 16 17 15 13 10 8 6 5 5 4 5 8 8 9 12 14 14 13 15 18 21 23 25 29 30 33 36 38 39 41
28 26 28 31 32 31 31 32 31 32 31 30 29 30 27 27 26 25 25 23 22 21 20 18 15 14 10 9 6 3 2 1 1 1 4 9 8 9 13 17 19 21 21 22 25 28 32 36 39 41 43 45 46 50
22 21 20 23 24 22 23 23 22 22 20 19 21 22 19 17 17 17 16 15 13 13 13 13 12 10 9 8 6 5 4 2 3 5 8 12 17 20 20 22 25 29 33 35 38 39 41 44 47 51 52 54 56 59
20 19 17 16 15 15 15 16 16 16 15 15 14 14 13 12 12 12 12 12 12 11 10 8 5 4 4 4 6 8 10 13 15 17 21 23 25 28 30 33 37 38 41 45 45 46 48 51 54 58 60 59 59 61
26 22 20 19 18 17 17 17 16 15 13 12 11 10 9 9 9 8 7 6 4 3 3 2 4 8 10 13 16 18 20 22 26 28 30 33 36 39 43 44 45 47 51 55 57 59 62 62 61 62 65 66 65 64
25 26 21 17 15 15 14 13 12 12 11 9 9 7 5 5 6 6 6 6 7 8 11 13 14 16 19 23 25 28 30 32 34 37 39 40 42 44 46 49 52 55 58 60 62 62 63 65 65 65 66 67 69 69
24 23 23 20 16 12 11 9 8 7 6 6 6 8 9 11 13 16 16 16 16 18 20 22 23 25 26 30 34 35 36 38 41 44 46 49 53 53 56 61 63 63 64 65 65 66 66 66 65 66 64 64 65 66
25 22 20 19 16 13 11 9 9 10 11 12 14 16 19 21 21 20 22 25 25 23 24 27 29 32 34 37 40 42 44 47 48 50 53 56 57 58 60 61 62 61 61 62 63 62 63 65 66 67 67 67 67 67
Wind_Direction
315 309 307 306 303 297 294 291 288 283 277 270 264 258 252 248 243 238 233 230 227 225 223 223 221 218 218 217 209 207 208 208 207 212 212 218 216 223 225 227 228 234 236 239 240 243 243 246 249 253 256 261 264 266
309 307 307 305 300 295 291 288 285 280 273 265 258 253 248 243 237 231 226 223 221 222 220 219 217 213 213 213 208 203 204 207 208 212 212 214 218 221 227 229 230 233 238 244 244 245 246 246 250 252 254 257 258 263
309 306 305 303 298 293 290 286 282 276 270 261 252 246 239 235 229 222 220 218 217 217 214 214 211 208 209 210 205 198 199 202 209 212 214 214 217 221 227 229 230 232 233 238 245 247 250 251 252 252 253 256 260 260
308 308 307 303 299 295 290 283 277 272 266 255 245 238 232 227 221 216 214 213 213 212 210 209 206 203 205 205 204 198 198 199 206 212 214 216 219 224 226 227 224 230 237 239 242 240 237 242 250 257 259 257 258 254
312 312 310 304 299 294 290 283 271 264 259 246 237 231 224 220 217 214 214 211 210 207 206 205 202 201 201 202 202 199 198 200 203 213 215 217 221 222 228 230 229 234 234 234 242 239 239 244 247 249 245 249 247 245
314 314 311 305 300 297 292 281 263 255 248 237 229 222 217 215 211 209 207 205 203 201 201 200 198 198 200 201 200 199 198 200 204 211 213 215 223 222 227 231 231 231 236 231 229 228 229 238 244 242 238 240 246 252
315 314 312 307 303 300 292 276 253 246 238 230 223 216 212 209 207 205 203 201 198 196 198 199 197 196 197 199 199 198 199 202 203 211 211 213 221 225 225 228 231 229 232 235 235 235 236 237 237 236 238 245 251 257
316 315 314 309 304 299 291 269 246 236 228 221 216 211 206 204 203 201 197 197 195 195 197 198 194 195 196 197 197 196 199 202 202 208 208 212 219 225 226 225 228 231 233 237 237 238 237 242 246 248 247 248 253 257
317 317 315 309 301 293 282 258 236 223 216 210 206 203 200 200 199 195 194 192 191 192 194 193 193 193 194 197 197 195 197 202 206 207 208 212 220 227 229 230 232 234 238 240 242 246 247 246 248 249 248 246 251 251
318 317 315 308 299 290 270 236 220 212 205 200 197 193 192 194 193 190 189 188 189 191 191 191 193 191 192 198 197 196 198 204 206 209 210 211 218 225 231 235 236 235 233 236 237 237 238 240 242 243 243 241 242 243
322 322 320 315 308 288 239 207 202 197 192 191 191 188 186 187 187 189 190 187 189 188 189 190 191 192 193 198 199 198 200 205 211 211 214 214 218 224 227 231 233 233 235 237 243 246 249 253 255 249 243 239 240 246
329 330 332 331 333 256 187 187 189 188 183 180 180 181 182 185 187 188 188 186 186 187 189 191 192 192 194 198 202 200 202 206 213 215 216 218 220 225 232 236 237 238 242 244 248 245 242 244 247 249 251 250 240 241
344 345 348 357 33 130 155 168 173 174 173 173 177 180 181 183 186 187 188 185 186 187 189 194 195 195 195 199 204 207 204 207 211 214 216 219 222 226 229 233 237 241 242 244 246 248 252 253 253 254 256 257 257 258
360 3 12 32 75 128 141 146 154 161 165 166 169 173 179 182 182 184 189 185 188 189 193 195 195 196 198 201 204 209 210 213 215 217 219 223 227 229 234 236 238 243 246 250 253 256 258 260 262 263 264 266 269 271
18 25 43 61 98 121 130 134 139 145 151 158 162 169 174 178 181 187 190 186 188 190 192 195 198 199 200 201 204 207 211 218 221 221 222 224 228 232 234 238 242 246 250 255 258 259 262 266 268 270 271 273 274 276
39 48 69 84 99 113 121 126 134 143 151 157 160 165 168 174 179 184 192 188 184 190 194 195 199 202 203 204 207 210 213 216 220 225 229 230 232 236 239 243 246 249 253 257 261 264 265 269 271 272 273 274 275 276
50 64 74 89 99 106 109 112 121 133 145 150 155 163 166 171 178 184 188 190 190 191 193 197 199 204 207 209 210 211 215 219 222 225 228 233 239 243 246 249 253 255 258 260 261 262 265 268 270 272 274 275 277 279
59 68 77 80 83 92 101 109 119 127 135 138 141 144 160 169 180 186 189 194 195 193 194 199 203 205 207 211 214 217 218 220 224 228 232 236 239 243 246 249 252 255 258 261 264 266 268 270 272 273 275 276 277 280
66 71 75 78 82 87 96 99 103 113 125 134 141 147 157 164 169 178 188 194 196 196 195 197 202 207 212 215 218 220 222 225 227 229 231 234 237 240 244 249 253 257 260 262 264 266 269 272 274 275 278 279 281 283
71 74 77 80 84 87 89 94 100 106 110 119 128 133 138 144 152 163 177 188 196 200 202 204 204 206 211 216 219 223 226 229 232 236 239 241 244 248 251 255 257 260 262 264 267 269 272 273 274 277 277 276 276 277
67 71 77 82 84 86 89 91 94 96 101 106 113 120 125 134 144 154 164 176 185 191 200 205 209 210 213 217 220 224 228 232 235 237 240 243 245 247 250 253 256 259 262 264 266 267 267 268 270 272 273 276 279 281
64 66 72 74 76 80 85 88 90 93 95 99 104 108 114 119 126 135 146 159 171 181 190 196 202 208 214 219 224 228 230 231 234 238 241 245 248 251 253 256 259 261 261 260 261 264 265 267 269 273 276 278 281 285
65 64 63 66 71 76 80 83 86 89 92 95 98 101 102 104 107 112 118 130 142 154 165 175 184 193 202 209 214 217 221 225 229 232 236 240 243 243 240 241 243 248 253 258 261 265 268 269 271 274 278 281 283 285
63 69 72 71 68 67 69 74 80 84 87 88 88 91 97 104 109 112 115 118 123 127 133 141 152 168 174 177 184 182 179 192 207 213 216 221 227 237 244 244 248 258 264 264 266 270 275 277 276 274 275 278 280 280
59 60 64 68 74 76 73 73 74 76 78 77 77 79 82 83 82 85 90 95 97 103 110 118 121 116 110 111 117 124 137 141 146 167 198 222 236 244 252 258 258 259 265 270 275 278 277 276 276 275 277 280 285 289
59 59 63 66 67 69 71 71 73 76 78 79 78 77 78 81 82 84 86 87 86 93 100 101 104 107 103 98 95 104 116 130 140 164 213 242 250 264 270 271 272 278 281 281 279 276 277 280 284 286 287 288 291 293
56 57 59 66 69 67 69 69 69 71 74 77 79 81 77 78 81 81 83 86 89 89 90 93 97 98 101 103 115 136 118 42 354 330 312 300 297 287 280 283 286 284 281 279 281 286 289 292 291 290 291 293 294 295
45 49 50 55 57 57 62 64 64 66 68 71 73 76 78 76 76 77 82 82 81 80 82 79 77 77 73 69 62 48 40 4 305 297 293 290 294 294 293 293 295 296 297 296 296 296 295 293 293 292 293 294 294 293
36 45 47 52 53 54 56 57 55 57 57 59 62 68 72 77 83 86 87 88 90 88 83 77 71 61 35 2 334 316 305 301 299 298 300 300 297 292 291 290 289 288 288 287 287 288 289 290 291 292 293 292 291 291
34 34 41 44 43 47 55 57 54 51 52 58 66 70 77 81 86 90 88 82 75 62 31 334 307 300 296 294 291 292 293 293 296 296 294 296 296 295 295 296 297 297 297 298 299 300 300 300 299 298 297 298 298 297
32 29 31 41 47 48 47 46 53 60 54 39 45 47 33 14 357 333 305 293 297 297 296 292 287 290 294 294 295 296 295 294 295 295 295 297 298 297 297 297 296 296 297 298 299 298 298 298 298 299 299 298 299 300
32 28 19 17 22 28 29 21 15 15 9 357 345 333 318 305 301 297 290 286 289 294 296 295 293 289 288 289 290 292 294 296 297 296 298 299 297 299 300 300 300 302 302 301 299 299 299 298 299 299 299 298 297 297
24 26 9 6 3 4 354 343 328 322 321 320 316 314 313 305 296 295 299 300 300 295 292 291 290 291 292 293 294 296 297 297 295 297 299 298 299 300 298 298 300 300 300 299 300 300 302 302 301 302 300 300 300 299
Height
10418 10400 10388 10376 10365 10357 10350 10347 10344 10342 10341 10341 10344 10348 10354 10361 10370 10380 10390 10402 10414 10422 10440 10455 10471 10489 10503 10517 10532 10544 10561 10577 10593 10606 10626 10641 10652 10657 10670 10683 10697 10701 10709 10716 10732 10738 10745 10756 10756 10759 10761 10763 10764 10771
10383 10370 10359 10349 10340 10333 10329 10326 10323 10322 10321 10323 10325 10330 10336 10345 10352 10362 10371 10383 10393 10404 10424 10439 10455 10472 10487 10501 10517 10532 10554 10569 10583 10593 10611 10623 10631 10637 10649 10663 10686 10692 10697 10704 10719 10729 10736 10742 10743 10748 10751 10749 10750 10753
10351 10342 10333 10325 10317 10312 10309 10307 10305 10304 10305 10307 10310 10315 10322 10330 10337 10347 10356 10367 10378 10390 10408 10421 10438 10457 10473 10488 10505 10523 10538 10555 10570 10582 10595 10603 10613 10627 10635 10664 10676 10681 10681 10694 10704 10709 10715 10719 10719 10728 10737 10735 10735 10740
10328 10319 10310 10302 10296 10293 10291 10290 10290 10290 10291 10294 10299 10303 10311 10318 10326 10336 10346 10357 10368 10381 10396 10411 10426 10441 10459 10475 10492 10511 10526 10540 10558 10568 10580 10593 10608 10615 10626 10645 10660 10659 10668 10683 10688 10693 10698 10701 10704 10708 10714 10720 10724 10724
10308 10299 10291 10285 10280 10277 10275 10275 10275 10277 10280 10284 10288 10294 10301 10309 10317 10327 10337 10348 10358 10371 10383 10396 10414 10431 10447 10464 10480 10498 10515 10532 10545 10555 10568 10585 10595 10610 10617 10631 10643 10649 10661 10669 10673 10675 10683 10686 10688 10691 10696 10697 10701 10702
10291 10283 10277 10271 10267 10264 10262 10262 10264 10267 10271 10276 10280 10286 10293 10300 10309 10318 10329 10338 10349 10362 10375 10388 10405 10422 10438 10454 10470 10488 10507 10523 10535 10544 10560 10575 10580 10596 10605 10612 10626 10639 10640 10649 10661 10661 10664 10668 10675 10674 10676 10677 10681 10688
10278 10273 10267 10262 10257 10255 10253 10254 10256 10260 10265 10268 10273 10278 10286 10294 10302 10311 10322 10331 10342 10354 10365 10379 10396 10413 10429 10447 10464 10482 10499 10514 10525 10536 10554 10564 10568 10577 10592 10600 10608 10624 10631 10633 10638 10641 10647 10650 10653 10654 10656 10664 10665 10669
10270 10264 10259 10253 10250 10248 10247 10248 10251 10255 10258 10262 10267 10274 10281 10288 10296 10305 10316 10327 10338 10349 10359 10375 10394 10409 10426 10442 10459 10476 10492 10506 10517 10529 10546 10554 10556 10561 10578 10595 10606 10613 10616 10616 10623 10624 10628 10634 10639 10645 10650 10654 10652 10655
10261 10256 10251 10247 10244 10243 10243 10245 10247 10250 10253 10258 10263 10270 10277 10284 10293 10304 10313 10323 10333 10346 10358 10375 10390 10406 10424 10440 10455 10472 10486 10498 10509 10518 10530 10537 10544 10557 10575 10588 10597 10601 10603 10604 10605 10609 10616 10623 10628 10632 10635 10637 10636 10637
10254 10249 10245 10242 10239 10239 10239 10241 10244 10247 10251 10256 10261 10268 10275 10283 10292 10302 10310 10321 10333 10344 10358 10373 10389 10408 10424 10437 10453 10468 10480 10489 10499 10507 10525 10536 10547 10558 10570 10578 10584 10586 10588 10591 10593 10597 10601 10605 10609 10611 10614 10615 10617 10621
10248 10244 10241 10238 10236 10235 10236 10238 10241 10245 10250 10255 10260 10266 10274 10282 10291 10301 10310 10320 10332 10345 10358 10373 10390 10404 10420 10433 10447 10461 10474 10485 10492 10505 10520 10533 10541 10547 10551 10556 10561 10567 10573 10579 10585 10588 10591 10592 10594 10594 10594 10597 10602 10606
10245 10241 10239 10236 10234 10234 10235 10237 10240 10245 10250 10255 10261 10267 10274 10282 10291 10300 10310 10321 10333 10346 10358 10372 10385 10400 10416 10428 10439 10452 10464 10477 10489 10503 10516 10524 10531 10533 10537 10543 10551 10558 10566 10573 10577 10577 10576 10577 10579 10581 10583 10586 10590 10593
10243 10240 10238 10236 10235 10235 10236 10239 10242 10246 10251 10256 10262 10269 10276 10284 10293 10304 10313 10324 10334 10347 10361 10372 10386 10402 10415 10425 10434 10446 10461 10472 10481 10493 10503 10511 10516 10520 10525 10531 10541 10549 10555 10558 10560 10563 10565 10565 10566 10568 10570 10574 10573 10572
10244 10241 10240 10238 10238 10238 10239 10241 10244 10248 10253 10260 10266 10273 10281 10288 10295 10304 10312 10324 10336 10347 10358 10371 10386 10400 10409 10422 10435 10447 10457 10464 10477 10489 10498 10500 10506 10513 10519 10527 10532 10535 10539 10542 10545 10548 10550 10549 10551 10555 10557 10555 10554 10554
10246 10243 10242 10242 10242 10243 10244 10246 10249 10253 10258 10264 10270 10275 10282 10290 10299 10306 10312 10322 10334 10345 10356 10370 10381 10392 10406 10421 10431 10440 10449 10459 10471 10481 10480 10488 10498 10504 10512 10517 10522 10526 10528 10530 10531 10533 10534 10534 10535 10538 10540 10537 10536 10535
10250 10248 10247 10247 10247 10249 10250 10252 10255 10258 10262 10267 10272 10279 10286 10293 10300 10308 10317 10325 10336 10347 10360 10371 10382 10392 10404 10414 10424 10437 10449 10457 10463 10467 10474 10483 10490 10497 10503 10507 10510 10514 10516 10517 10519 10522 10521 10521 10521 10521 10519 10516 10513 10512
10257 10255 10255 10254 10254 10255 10257 10259 10262 10265 10268 10273 10278 10283 10289 10296 10303 10310 10317 10327 10337 10347 10356 10368 10380 10391 10400 10411 10423 10433 10439 10447 10454 10459 10468 10474 10480 10486 10490 10495 10498 10499 10503 10506 10506 10506 10508 10506 10504 10503 10500 10498 10496 10492
10266 10264 10262 10262 10263 10263 10264 10266 10268 10270 10274 10279 10285 10290 10296 10301 10307 10314 10322 10330 10338 10348 10359 10368 10377 10386 10397 10408 10415 10423 10434 10443 10449 10456 10462 10466 10471 10475 10477 10480 10483 10486 10489 10491 10490 10490 10491 10491 10488 10484 10481 10478 10476 10472
10276 10274 10273 10272 10272 10273 10273 10274 10277 10280 10283 10285 10288 10292 10297 10303 10310 10319 10327 10333 10341 10349 10358 10369 10378 10386 10394 10401 10409 10417 10425 10431 10438 10444 10449 10453 10458 10462 10463 10467 10471 10473 10475 10475 10474 10474 10472 10471 10469 10465 10461 10457 10455 10451
10288 10286 10285 10284 10284 10284 10283 10285 10287 10288 10291 10294 10297 10302 10307 10312 10318 10323 10330 10337 10344 10352 10359 10366 10372 10379 10386 10394 10402 10409 10415 10421 10427 10433 10438 10442 10445 10451 10453 10455 10457 10457 10458 10457 10458 10456 10454 10451 10448 10446 10443 10441 10438 10435
10303 10301 10298 10296 10297 10296 10297 10297 10298 10300 10302 10304 10307 10310 10314 10319 10322 10327 10332 10338 10344 10349 10356 10363 10371 10379 10386 10392 10398 10403 10408 10413 10419 10422 10424 10428 10433 10435 10438 10439 10440 10441 10441 10441 10440 10438 10435 10434 10433 10431 10428 10426 10424 10421
10320 10317 10315 10314 10312 10311 10311 10311 10311 10313 10314 10315 10317 10320 10322 10325 10329 10333 10337 10341 10346 10352 10358 10364 10370 10376 10381 10386 10391 10395 10399 10403 10406 10410 10415 10418 10419 10422 10424 10425 10426 10427 10426 10426 10426 10425 10424 10422 10421 10419 10416 10415 10413 10411
10340 10337 10336 10334 10331 10330 10329 10328 10327 10327 10327 10328 10329 10330 10333 10335 10338 10341 10343 10347 10350 10355 10360 10365 10370 10374 10378 10382 10386 10390 10394 10396 10400 10403 10405 10408 10410 10412 10413 10415 10416 10414 10414 10415 10415 10414 10413 10412 10411 10410 10407 10405 10402 10400
10363 10358 10355 10353 10353 10352 10351 10348 10347 10346 10345 10346 10346 10346 10346 10346 10348 10350 10351 10354 10357 10361 10364 10367 10372 10375 10380 10383 10386 10390 10393 10396 10399 10400 10402 10403 10405 10408 10409 10408 10408 10409 10409 10407 10406 10406 10405 10404 10402 10399 10397 10395 10393 10391
10384 10379 10376 10372 10369 10369 10368 10367 10366 10365 10364 10364 10364 10364 10364 10364 10365 10367 10368 10369 10371 10373 10376 10378 10380 10383 10386 10389 10392 10394 10396 10397 10398 10399 10401 10402 10403 10404 10404 10403 10403 10403 10402 10401 10400 10398 10396 10394 10392 10390 10388 10385 10383 10380
10398 10396 10391 10387 10386 10385 10383 10383 10381 10380 10379 10379 10378 10379 10380 10379 10380 10381 10382 10383 10384 10385 10387 10389 10391 10393 10394 10395 10397 10398 10398 10399 10400 10402 10402 10400 10401 10401 10399 10398 10398 10398 10397 10395 10393 10390 10388 10385 10382 10379 10376 10373 10370 10368
10410 10408 10405 10402 10400 10400 10398 10396 10396 10394 10393 10393 10392 10391 10393 10392 10392 10393 10393 10394 10394 10395 10396 10396 10397 10398 10399 10399 10400 10400 10400 10400 10400 10400 10400 10398 10398 10397 10395 10394 10392 10391 10389 10387 10384 10381 10377 10374 10369 10366 10363 10359 10356 10350
10417 10416 10415 10410 10407 10408 10406 10405 10406 10404 10404 10403 10402 10401 10402 10402 10402 10402 10402 10402 10401 10401 10402 10402 10402 10403 10402 10402 10402 10401 10401 10400 10400 10400 10400 10398 10395 10392 10391 10388 10385 10381 10378 10374 10371 10367 10365 10360 10354 10349 10345 10342 10338 10331
10427 10422 10421 10418 10416 10414 10412 10412 10411 10410 10410 10409 10408 10408 10408 10407 10407 10406 10406 10406 10406 10406 10406 10406 10406 10405 10404 10404 10403 10402 10401 10399 10398 10396 10394 10392 10389 10386 10383 10380 10376 10373 10368 10362 10358 10355 10350 10345 10340 10332 10325 10321 10316 10310
10431 10428 10425 10423 10421 10419 10417 10416 10415 10415 10415 10414 10414 10413 10413 10412 10412 10411 10410 10410 10409 10408 10407 10406 10406 10404 10403 10402 10400 10398 10396 10393 10390 10388 10385 10382 10378 10373 10368 10364 10360 10355 10349 10342 10337 10331 10324 10318 10312 10306 10298 10291 10285 10281
10436 10434 10432 10428 10426 10425 10424 10422 10421 10419 10419 10419 10418 10418 10418 10416 10415 10414 10412 10411 10409 10408 10406 10404 10402 10400 10398 10395 10393 10390 10387 10384 10382 10377 10373 10370 10365 10359 10355 10350 10344 10338 10333 10327 10318 10311 10305 10297 10289 10284 10277 10269 10259 10251
10439 10437 10436 10434 10432 10429 10426 10425 10425 10424 10423 10422 10420 10419 10418 10416 10414 10410 10408 10408 10406 10404 10402 10399 10396 10393 10390 10387 10383 10380 10377 10375 10370 10363 10359 10354 10347 10343 10338 10329 10322 10317 10310 10302 10294 10287 10280 10272 10267 10259 10253 10248 10241 10232
10445 10440 10437 10437 10435 10431 10429 10427 10425 10423 10422 10420 10418 10417 10415 10412 10409 10407 10403 10400 10399 10398 10396 10393 10389 10386 10381 10376 10371 10368 10364 10359 10355 10350 10345 10338 10333 10328 10319 10310 10304 10298 10290 10281 10273 10266 10258 10250 10243 10235 10226 10219 10212 10206